When you browse on this site, cookies collect data to enhance your experience and personalize the content and advertising you see.
Visit our Privacy Policy to learn more. By continuing to use the site, you agree to this use of cookies and data.
  • en Suisse
  • Liste des pays
  • À 7 jours
  • Température de l'eau
  • Carte météo
  • Widgets météo
  • user-avatar
    Se connecter

    Météo par heure à Pabna

    Ce jour, 16 Octobre, Mercredi

    Heure Température Précipitation Vent Pression Humidité
    00:00 +27°C° 0 mm 1 m/s 757 mmHg 78%
    01:00 +27°C° 0 mm 1 m/s 757 mmHg 79%
    02:00 +27°C° 0 mm 1 m/s 757 mmHg 81%
    03:00 +27°C° 0 mm 1 m/s 756 mmHg 82%
    04:00 +27°C° 0 mm 1 m/s 756 mmHg 83%
    05:00 +26°C° 0 mm 1 m/s 757 mmHg 84%
    06:00 +26°C° 0 mm 1 m/s 757 mmHg 85%
    07:00 +28°C° 0 mm 1 m/s 757 mmHg 80%
    08:00 +29°C° 0 mm 1 m/s 758 mmHg 75%
    09:00 +31°C° 0 mm 1 m/s 759 mmHg 70%
    10:00 +32°C° 0 mm 1 m/s 758 mmHg 65%
    11:00 +33°C° 0 mm 1 m/s 758 mmHg 61%
    12:00 +32°C° 0 mm 0 m/s 757 mmHg 56%
    13:00 +34°C° 0 mm 1 m/s 756 mmHg 57%
    14:00 +33°C° 0 mm 1 m/s 756 mmHg 57%
    15:00 +34°C° 0 mm 2 m/s 755 mmHg 57%
    16:00 +32°C° 0 mm 2 m/s 755 mmHg 61%
    17:00 +31°C° 0 mm 1 m/s 755 mmHg 65%
    18:00 +30°C° 0 mm 1 m/s 755 mmHg 69%
    19:00 +30°C° 0 mm 1 m/s 756 mmHg 71%
    20:00 +29°C° 0 mm 1 m/s 756 mmHg 73%
    21:00 +29°C° 0 mm 1 m/s 757 mmHg 75%
    22:00 +29°C° 0 mm 1 m/s 757 mmHg 76%
    23:00 +28°C° 0 mm 1 m/s 757 mmHg 77%

    Demain, 17 Octobre, Jeudi

    Heure Température Précipitation Vent Pression Humidité
    00:00 +28°C° 0 mm 1 m/s 757 mmHg 78%
    01:00 +28°C° 0 mm 2 m/s 757 mmHg 79%
    02:00 +28°C° 0 mm 2 m/s 757 mmHg 80%
    03:00 +27°C° 0 mm 2 m/s 757 mmHg 81%
    04:00 +27°C° 0.1 mm 2 m/s 757 mmHg 82%
    05:00 +27°C° 0.1 mm 2 m/s 757 mmHg 84%
    06:00 +27°C° 0.1 mm 2 m/s 757 mmHg 85%
    07:00 +28°C° 0 mm 2 m/s 758 mmHg 79%
    08:00 +29°C° 0 mm 2 m/s 758 mmHg 74%
    09:00 +31°C° 0 mm 2 m/s 759 mmHg 68%
    10:00 +32°C° 0 mm 2 m/s 758 mmHg 63%
    11:00 +34°C° 0 mm 2 m/s 758 mmHg 59%
    12:00 +35°C° 0 mm 2 m/s 757 mmHg 54%
    13:00 +35°C° 0 mm 2 m/s 756 mmHg 55%
    14:00 +35°C° 0 mm 2 m/s 756 mmHg 55%
    15:00 +35°C° 0 mm 2 m/s 755 mmHg 55%
    16:00 +34°C° 0 mm 2 m/s 755 mmHg 59%
    17:00 +31°C° 0 mm 2 m/s 755 mmHg 63%
    18:00 +30°C° 0 mm 2 m/s 755 mmHg 67%
    19:00 +30°C° 0 mm 2 m/s 755 mmHg 69%
    20:00 +29°C° 0 mm 2 m/s 756 mmHg 70%
    21:00 +29°C° 0 mm 2 m/s 756 mmHg 72%
    22:00 +28°C° 0 mm 2 m/s 756 mmHg 73%
    23:00 +28°C° 0 mm 2 m/s 756 mmHg 74%

    Après-demain, 18 Octobre, Vendredi

    Heure Température Précipitation Vent Pression Humidité
    00:00 +28°C° 0 mm 2 m/s 756 mmHg 75%
    01:00 +27°C° 0 mm 2 m/s 756 mmHg 76%
    02:00 +27°C° 0 mm 2 m/s 756 mmHg 78%
    03:00 +27°C° 0 mm 2 m/s 756 mmHg 79%
    04:00 +27°C° 0 mm 2 m/s 756 mmHg 79%
    05:00 +26°C° 0 mm 2 m/s 756 mmHg 79%
    06:00 +26°C° 0 mm 2 m/s 756 mmHg 80%
    07:00 +28°C° 0 mm 2 m/s 757 mmHg 75%
    08:00 +29°C° 0 mm 2 m/s 758 mmHg 70%
    09:00 +31°C° 0 mm 2 m/s 758 mmHg 65%
    10:00 +32°C° 0 mm 2 m/s 758 mmHg 60%
    11:00 +34°C° 0 mm 3 m/s 758 mmHg 55%
    12:00 +35°C° 0 mm 3 m/s 757 mmHg 50%
    13:00 +35°C° 0 mm 3 m/s 757 mmHg 49%
    14:00 +35°C° 0 mm 3 m/s 756 mmHg 49%
    15:00 +35°C° 0 mm 3 m/s 755 mmHg 48%
    16:00 +33°C° 0 mm 3 m/s 755 mmHg 53%
    17:00 +31°C° 0 mm 2 m/s 755 mmHg 57%
    18:00 +30°C° 0 mm 2 m/s 755 mmHg 61%
    19:00 +29°C° 0 mm 2 m/s 755 mmHg 62%
    20:00 +29°C° 0 mm 2 m/s 756 mmHg 64%
    21:00 +28°C° 0 mm 2 m/s 757 mmHg 65%
    22:00 +28°C° 0 mm 2 m/s 757 mmHg 65%
    23:00 +28°C° 0 mm 2 m/s 757 mmHg 65%

    19 Octobre, Samedi

    Heure Température Précipitation Vent Pression Humidité
    00:00 +27°C° 0 mm 2 m/s 757 mmHg 66%
    01:00 +27°C° 0 mm 2 m/s 757 mmHg 66%
    02:00 +27°C° 0 mm 2 m/s 756 mmHg 67%
    03:00 +27°C° 0 mm 2 m/s 756 mmHg 68%
    04:00 +26°C° 0 mm 2 m/s 756 mmHg 69%
    05:00 +26°C° 0 mm 2 m/s 757 mmHg 71%
    06:00 +26°C° 0 mm 2 m/s 757 mmHg 72%
    07:00 +27°C° 0 mm 2 m/s 757 mmHg 69%
    08:00 +29°C° 0 mm 2 m/s 758 mmHg 65%
    09:00 +30°C° 0 mm 2 m/s 759 mmHg 62%
    10:00 +31°C° 0 mm 2 m/s 758 mmHg 57%
    11:00 +32°C° 0 mm 2 m/s 758 mmHg 53%
    12:00 +34°C° 0 mm 2 m/s 757 mmHg 49%
    13:00 +34°C° 0 mm 3 m/s 757 mmHg 48%
    14:00 +35°C° 0 mm 3 m/s 756 mmHg 48%
    15:00 +35°C° 0 mm 3 m/s 755 mmHg 47%
    16:00 +33°C° 0 mm 3 m/s 755 mmHg 52%
    17:00 +31°C° 0 mm 2 m/s 755 mmHg 56%
    18:00 +30°C° 0 mm 2 m/s 755 mmHg 61%
    19:00 +29°C° 0 mm 2 m/s 755 mmHg 63%
    20:00 +29°C° 0 mm 2 m/s 756 mmHg 64%
    21:00 +28°C° 0 mm 2 m/s 756 mmHg 66%
    22:00 +28°C° 0 mm 2 m/s 756 mmHg 68%
    23:00 +28°C° 0 mm 2 m/s 756 mmHg 70%

    20 Octobre, Dimanche

    Heure Température Précipitation Vent Pression Humidité
    00:00 +27°C° 0 mm 2 m/s 756 mmHg 71%
    01:00 +27°C° 0 mm 2 m/s 756 mmHg 72%
    02:00 +27°C° 0 mm 2 m/s 756 mmHg 73%
    03:00 +26°C° 0 mm 2 m/s 756 mmHg 73%
    04:00 +26°C° 0 mm 1 m/s 756 mmHg 74%
    05:00 +26°C° 0 mm 1 m/s 757 mmHg 75%
    06:00 +26°C° 0 mm 1 m/s 757 mmHg 76%
    07:00 +27°C° 0 mm 1 m/s 758 mmHg 72%
    08:00 +29°C° 0 mm 1 m/s 758 mmHg 68%
    09:00 +30°C° 0 mm 1 m/s 759 mmHg 64%
    10:00 +31°C° 0 mm 2 m/s 758 mmHg 60%
    11:00 +32°C° 0 mm 2 m/s 758 mmHg 55%
    12:00 +34°C° 0 mm 2 m/s 757 mmHg 51%
    13:00 +35°C° 0 mm 3 m/s 757 mmHg 50%
    14:00 +35°C° 0 mm 3 m/s 756 mmHg 49%
    15:00 +35°C° 0 mm 3 m/s 755 mmHg 49%
    16:00 +34°C° 0 mm 2 m/s 755 mmHg 53%
    17:00 +31°C° 0 mm 2 m/s 755 mmHg 57%
    18:00 +30°C° 0 mm 1 m/s 755 mmHg 61%
    19:00 +30°C° 0 mm 1 m/s 755 mmHg 63%
    20:00 +29°C° 0 mm 1 m/s 756 mmHg 66%
    21:00 +29°C° 0 mm 2 m/s 756 mmHg 68%
    22:00 +28°C° 0 mm 2 m/s 756 mmHg 70%
    23:00 +28°C° 0 mm 2 m/s 756 mmHg 72%

    21 Octobre, Lundi

    Heure Température Précipitation Vent Pression Humidité
    00:00 +28°C° 0 mm 2 m/s 756 mmHg 73%
    01:00 +27°C° 0 mm 2 m/s 756 mmHg 73%
    02:00 +27°C° 0 mm 1 m/s 756 mmHg 74%
    03:00 +27°C° 0 mm 1 m/s 756 mmHg 74%
    04:00 +27°C° 0 mm 1 m/s 756 mmHg 73%
    05:00 +27°C° 0 mm 1 m/s 756 mmHg 72%
    06:00 +27°C° 0 mm 1 m/s 756 mmHg 72%
    07:00 +28°C° 0 mm 1 m/s 756 mmHg 71%
    08:00 +26°C° 0 mm 0 m/s 757 mmHg 69%
    09:00 +27°C° 0 mm 0 m/s 757 mmHg 68%
    10:00 +30°C° 0 mm 1 m/s 757 mmHg 65%
    11:00 +31°C° 0 mm 2 m/s 756 mmHg 62%
    12:00 +32°C° 0 mm 2 m/s 756 mmHg 59%
    13:00 +32°C° 0 mm 2 m/s 755 mmHg 57%
    14:00 +34°C° 0 mm 2 m/s 755 mmHg 54%
    15:00 +34°C° 0 mm 2 m/s 754 mmHg 52%
    16:00 +32°C° 0 mm 2 m/s 754 mmHg 57%
    17:00 +31°C° 0 mm 2 m/s 754 mmHg 62%
    18:00 +30°C° 0 mm 1 m/s 753 mmHg 67%
    19:00 +30°C° 0 mm 2 m/s 754 mmHg 69%
    20:00 +29°C° 0 mm 2 m/s 754 mmHg 71%
    21:00 +29°C° 0 mm 2 m/s 755 mmHg 73%
    22:00 +28°C° 0 mm 1 m/s 755 mmHg 74%
    23:00 +28°C° 0 mm 1 m/s 755 mmHg 75%
    Voir plus